EW9411 Weather Reports


Display with metric or nautical units.
time (UTC)temp
F
wind
direction
speed
MPH
gust
MPH
rain 1hr
in
rain 24hr
in
rain mn
in
humidity
%
barometer
mb
20200406061033 50 323 2.0 3.0 0.00 0.00 0.00 85 1014.8
20200406060842 50 312 2.0 3.0 0.00 0.00 0.00 85 1014.8
20200406060536 50 312 2.0 3.0 0.00 0.00 0.00 85 1014.8
20200406060429 50 311 1.0 2.0 0.00 0.00 0.00 85 1014.8
20200406060333 50 311 1.0 3.0 0.00 0.00 0.00 85 1014.7
20200406055829 50 311 1.0 3.0 0.00 0.00 0.00 85 1014.7
20200406055544 50 311 1.0 3.0 0.00 0.00 0.00 85 1014.7
20200406055332 49 311 2.0 3.0 0.00 0.00 0.00 85 1014.7
20200406055028 49 311 1.0 2.0 0.00 0.00 0.00 85 1014.7
20200406054836 49 311 1.0 2.0 0.00 0.00 0.00 85 1014.7
20200406054532 49 311 1.0 2.0 0.00 0.00 0.00 85 1014.6
20200406054343 49 311 1.0 2.0 0.00 0.00 0.00 85 1014.6
20200406054034 49 311 0.0 2.0 0.00 0.00 0.00 85 1014.5
20200406053825 49 311 1.0 2.0 0.00 0.00 0.00 85 1014.5
20200406053536 49 311 0.0 2.0 0.00 0.00 0.00 85 1014.4
20200406053328 49 311 1.0 2.0 0.00 0.00 0.00 84 1014.4
20200406053041 49 311 0.0 1.0 0.00 0.00 0.00 84 1014.4
20200406052831 49 311 0.0 1.0 0.00 0.00 0.00 84 1014.4
20200406052527 49 311 0.0 1.0 0.00 0.00 0.00 84 1014.4
20200406052336 49 311 0.0 1.0 0.00 0.00 0.00 84 1014.5
20200406052032 49 311 0.0 1.0 0.00 0.00 0.00 84 1014.3
20200406051840 49 311 0.0 1.0 0.00 0.00 0.00 84 1014.3
20200406051535 49 311 0.0 1.0 0.00 0.00 0.00 84 1014.3
20200406051343 49 311 0.0 2.0 0.00 0.00 0.00 84 1014.3
20200406051039 49 311 0.0 2.0 0.00 0.00 0.00 84 1014.3
20200406050828 49 311 0.0 2.0 0.00 0.00 0.00 84 1014.2
20200406050544 49 311 1.0 2.0 0.00 0.00 0.00 84 1014.1
20200406050332 49 311 1.0 2.0 0.00 0.00 0.00 84 1014.1
20200406050027 49 311 0.0 1.0 0.00 0.00 0.00 84 1014.2
20200406045834 49 311 0.0 2.0 0.00 0.00 0.00 83 1014.3
20200406045551 49 311 0.0 3.0 0.00 0.00 0.00 83 1014.5
20200406045338 49 311 1.0 3.0 0.00 0.00 0.00 83 1014.4
20200406045033 49 311 2.0 3.0 0.00 0.00 0.00 83 1014.5
20200406044825 49 50 0.0 2.0 0.00 0.00 0.00 83 1014.5
20200406044537 49 50 0.0 3.0 0.00 0.00 0.00 83 1014.5
20200406044330 49 50 0.0 3.0 0.00 0.00 0.00 83 1014.4
20200406044041 49 50 2.0 3.0 0.00 0.00 0.00 84 1014.4
20200406043833 49 60 2.0 3.0 0.00 0.00 0.00 83 1014.4
20200406043544 49 151 1.0 3.0 0.00 0.00 0.00 84 1014.4
20200406043336 49 151 1.0 3.0 0.00 0.00 0.00 84 1014.4
20200406043032 49 151 1.0 2.0 0.00 0.00 0.00 84 1014.4
20200406042840 49 151 1.0 2.0 0.00 0.00 0.00 84 1014.4
20200406042536 49 151 1.0 2.0 0.00 0.00 0.00 84 1014.4
20200406042344 49 151 1.0 2.0 0.00 0.00 0.00 84 1014.3
20200406042040 49 151 1.0 2.0 0.00 0.00 0.00 84 1014.4
20200406041828 49 151 1.0 2.0 0.00 0.00 0.00 84 1014.4
20200406041544 49 151 0.0 1.0 0.00 0.00 0.00 83 1014.3
20200406041332 49 151 0.0 1.0 0.00 0.00 0.00 83 1014.2
20200406041027 49 152 0.0 1.0 0.00 0.00 0.00 83 1014.2
20200406040836 49 151 0.0 1.0 0.00 0.00 0.00 83 1014.2
20200406040532 49 151 0.0 1.0 0.00 0.00 0.00 83 1014.2
20200406040340 49 151 1.0 1.0 0.00 0.00 0.00 83 1014.2
20200406040035 49 151 0.0 1.0 0.00 0.00 0.00 83 1014.2
20200406035827 49 151 0.0 1.0 0.00 0.00 0.00 83 1014.2
20200406035537 49 151 0.0 2.0 0.00 0.00 0.00 83 1014.2
20200406035330 49 151 0.0 2.0 0.00 0.00 0.00 83 1014.2
20200406035041 49 151 1.0 2.0 0.00 0.00 0.00 83 1014.2
20200406034833 49 151 1.0 2.0 0.00 0.00 0.00 83 1014.2
20200406034544 49 152 1.0 2.0 0.00 0.00 0.00 83 1014.2
20200406034336 49 151 1.0 2.0 0.00 0.00 0.00 83 1014.1
20200406034027 49 151 0.0 1.0 0.00 0.00 0.00 83 1014.1
20200406033841 49 151 0.0 1.0 0.00 0.00 0.00 82 1014.1
20200406033535 49 151 0.0 1.0 0.00 0.00 0.00 82 1014.1
20200406033345 49 151 0.0 1.0 0.00 0.00 0.00 82 1014.2
20200406033039 49 151 0.0 0.0 0.00 0.00 0.00 82 1014.2
20200406032828 49 151 0.0 0.0 0.00 0.00 0.00 82 1014.2
20200406032544 49 151 0.0 1.0 0.00 0.00 0.00 82 1014.2
20200406032331 49 151 0.0 2.0 0.00 0.00 0.00 82 1014.2
20200406032026 49 151 0.0 2.0 0.00 0.00 0.00 82 1014.2
20200406031834 49 151 0.0 2.0 0.00 0.00 0.00 82 1014.2
20200406031529 49 151 1.0 2.0 0.00 0.00 0.00 82 1014.2
20200406031338 49 151 1.0 2.0 0.00 0.00 0.00 82 1014.2
20200406031033 49 151 1.0 2.0 0.00 0.00 0.00 81 1014.3
20200406030841 49 151 1.0 1.0 0.00 0.00 0.00 81 1014.2
20200406030537 49 152 1.0 2.0 0.00 0.00 0.00 80 1014.3
20200406030329 49 151 0.0 2.0 0.00 0.00 0.00 80 1014.3
20200406030040 49 151 0.0 2.0 0.00 0.00 0.00 80 1014.3
20200406025833 50 151 1.0 2.0 0.00 0.00 0.00 80 1014.3
20200406025526 50 151 1.0 2.0 0.00 0.00 0.00 80 1014.3
20200406025338 50 151 0.0 1.0 0.00 0.00 0.00 80 1014.3
20200406025029 50 151 0.0 1.0 0.00 0.00 0.00 80 1014.4
20200406024841 50 152 0.0 1.0 0.00 0.00 0.00 80 1014.4
20200406024532 50 151 0.0 2.0 0.00 0.00 0.00 80 1014.3
20200406024345 50 151 0.0 2.0 0.00 0.00 0.00 80 1014.3
20200406024040 50 151 1.0 2.0 0.00 0.00 0.00 79 1014.3
20200406023827 50 152 1.0 2.0 0.00 0.00 0.00 79 1014.3
20200406023543 50 151 1.0 1.0 0.00 0.00 0.00 79 1014.3
20200406023332 51 152 0.0 1.0 0.00 0.00 0.00 79 1014.3
20200406023026 51 152 0.0 2.0 0.00 0.00 0.00 78 1014.4
20200406022835 51 151 0.0 2.0 0.00 0.00 0.00 78 1014.4
20200406022530 51 151 1.0 2.0 0.00 0.00 0.00 79 1014.4
20200406022339 51 152 1.0 2.0 0.00 0.00 0.00 78 1014.4
20200406022033 51 151 1.0 2.0 0.00 0.00 0.00 78 1014.4
20200406021842 51 152 1.0 2.0 0.00 0.00 0.00 78 1014.3
20200406021537 51 152 1.0 2.0 0.00 0.00 0.00 78 1014.4
20200406021325 51 152 1.0 2.0 0.00 0.00 0.00 78 1014.4
20200406021041 51 152 1.0 2.0 0.00 0.00 0.00 78 1014.4
20200406020833 51 152 1.0 2.0 0.00 0.00 0.00 78 1014.4
20200406020525 51 152 1.0 2.0 0.00 0.00 0.00 77 1014.3
20200406020337 51 152 1.0 2.0 0.00 0.00 0.00 77 1014.4
20200406020029 52 152 1.0 2.0 0.00 0.00 0.00 77 1014.4
20200406015841 52 152 1.0 2.0 0.00 0.00 0.00 77 1014.3
20200406015532 52 152 1.0 2.0 0.00 0.00 0.00 77 1014.3
20200406015343 52 152 1.0 2.0 0.00 0.00 0.00 77 1014.3
20200406015034 52 152 1.0 1.0 0.00 0.00 0.00 77 1014.4
20200406014826 52 152 0.0 1.0 0.00 0.00 0.00 77 1014.4
20200406014541 52 152 0.0 0.0 0.00 0.00 0.00 76 1014.4
20200406014328 52 152 0.0 1.0 0.00 0.00 0.00 76 1014.4
20200406014043 53 152 0.0 1.0 0.00 0.00 0.00 76 1014.4
20200406013830 53 152 0.0 2.0 0.00 0.00 0.00 76 1014.4
20200406013545 53 152 0.0 2.0 0.00 0.00 0.00 76 1014.4
20200406013332 53 152 0.0 2.0 0.00 0.00 0.00 76 1014.5
20200406013027 53 152 1.0 2.0 0.00 0.00 0.00 76 1014.4
20200406012835 53 152 1.0 2.0 0.00 0.00 0.00 76 1014.5
20200406012530 53 152 0.0 1.0 0.00 0.00 0.00 75 1014.5
20200406012340 54 152 0.0 1.0 0.00 0.00 0.00 75 1014.5
20200406012035 54 152 0.0 1.0 0.00 0.00 0.00 74 1014.4
20200406011843 54 152 0.0 1.0 0.00 0.00 0.00 74 1014.5
20200406011538 54 152 0.0 1.0 0.00 0.00 0.00 74 1014.5
20200406011332 54 152 0.0 1.0 0.00 0.00 0.00 74 1014.4
20200406011042 54 152 0.0 1.0 0.00 0.00 0.00 74 1014.5
20200406010834 54 152 0.0 1.0 0.00 0.00 0.00 74 1014.5
20200406010526 54 152 0.0 1.0 0.00 0.00 0.00 74 1014.4
20200406010339 54 152 1.0 1.0 0.00 0.00 0.00 74 1014.4
20200406010031 55 152 0.0 1.0 0.00 0.00 0.00 73 1014.3
20200406005843 55 152 0.0 0.0 0.00 0.00 0.00 73 1014.3
20200406005535 55 152 0.0 0.0 0.00 0.00 0.00 73 1014.2
20200406005327 55 152 0.0 0.0 0.00 0.00 0.00 73 1014.3
20200406005043 55 152 0.0 0.0 0.00 0.00 0.00 73 1014.3
20200406004832 55 152 0.0 0.0 0.00 0.00 0.00 73 1014.3
20200406004527 55 152 0.0 0.0 0.00 0.00 0.00 72 1014.2
20200406004337 55 152 0.0 0.0 0.00 0.00 0.00 72 1014.3
20200406004032 56 152 0.0 0.0 0.00 0.00 0.00 72 1014.3
20200406003841 56 152 0.0 0.0 0.00 0.00 0.00 72 1014.3
20200406003536 56 152 0.0 0.0 0.00 0.00 0.00 72 1014.3
20200406003344 56 152 0.0 0.0 0.00 0.00 0.00 72 1014.2
20200406003039 56 152 0.0 1.0 0.00 0.00 0.00 72 1014.2
20200406002829 56 152 0.0 1.0 0.00 0.00 0.00 72 1014.2
20200406002544 56 152 0.0 1.0 0.00 0.00 0.00 72 1014.1
20200406002333 56 152 0.0 1.0 0.00 0.00 0.00 72 1014.1
20200406002027 56 152 0.0 1.0 0.00 0.00 0.00 72 1014.1
20200406001840 56 152 0.0 2.0 0.00 0.00 0.00 72 1014.1
20200406001531 56 152 0.0 2.0 0.00 0.00 0.00 72 1014.1
20200406001342 56 152 0.0 2.0 0.00 0.00 0.00 72 1014.1
20200406001034 56 152 1.0 2.0 0.00 0.00 0.00 72 1014.0
20200406000846 56 152 1.0 2.0 0.00 0.00 0.00 72 1014.0
20200406000536 56 152 1.0 2.0 0.00 0.00 0.00 72 1014.0
20200406000329 56 152 1.0 1.0 0.00 0.00 0.00 72 1014.0
20200406000039 56 152 0.0 0.0 0.00 0.00 0.00 72 1014.0
20200405235831 56 152 0.0 0.0 0.00 0.00 0.00 72 1013.9
20200405235526 56 152 0.0 1.0 0.00 0.00 0.00 71 1013.9
20200405235335 57 152 0.0 1.0 0.00 0.00 0.00 72 1013.9
20200405235031 57 152 0.0 1.0 0.00 0.00 0.00 72 1013.8
20200405234839 57 152 0.0 1.0 0.00 0.00 0.00 71 1013.9
20200405234541 57 152 0.0 1.0 0.00 0.00 0.00 71 1013.9
20200405234351 57 152 0.0 1.0 0.00 0.00 0.00 71 1013.9
20200405234037 57 152 0.0 3.0 0.00 0.00 0.00 71 1013.8
20200405233844 57 152 0.0 3.0 0.00 0.00 0.00 71 1013.8
20200405233539 57 152 1.0 3.0 0.00 0.00 0.00 71 1013.8
20200405233326 57 152 1.0 3.0 0.00 0.00 0.00 71 1013.8
20200405233041 57 152 1.0 3.0 0.00 0.00 0.00 70 1013.8
20200405232828 57 152 1.0 3.0 0.00 0.00 0.00 70 1013.8
20200405232544 57 150 1.0 3.0 0.00 0.00 0.00 70 1013.8
20200405232336 58 184 2.0 3.0 0.00 0.00 0.00 70 1013.8
20200405232028 58 177 2.0 3.0 0.00 0.00 0.00 70 1013.8
20200405231840 58 175 1.0 3.0 0.00 0.00 0.00 70 1013.7
20200405231532 58 175 1.0 3.0 0.00 0.00 0.00 69 1013.7
20200405231344 58 175 2.0 5.0 0.00 0.00 0.00 69 1013.7
20200405231036 58 173 2.0 5.0 0.00 0.00 0.00 69 1013.8
20200405230827 58 159 2.0 6.0 0.00 0.00 0.00 68 1013.7
20200405230538 59 152 3.0 8.0 0.00 0.00 0.00 68 1013.7
20200405230330 59 148 2.0 8.0 0.00 0.00 0.00 68 1013.7
20200405230026 59 121 4.0 8.0 0.00 0.00 0.00 67 1013.7
20200405225835 59 152 3.0 6.0 0.00 0.00 0.00 67 1013.8
20200405225531 60 149 2.0 6.0 0.00 0.00 0.00 67 1013.7
20200405225339 60 113 3.0 6.0 0.00 0.00 0.00 67 1013.7
20200405225034 60 165 2.0 5.0 0.00 0.00 0.00 67 1013.7
20200405224843 60 117 2.0 6.0 0.00 0.00 0.00 67 1013.8
20200405224539 60 112 2.0 6.0 0.00 0.00 0.00 66 1013.8
20200405224327 60 162 1.0 6.0 0.00 0.00 0.00 66 1013.8
20200405224041 60 154 4.0 6.0 0.00 0.00 0.00 66 1013.7
20200405223830 61 154 3.0 5.0 0.00 0.00 0.00 65 1013.8
20200405223526 61 198 1.0 6.0 0.00 0.00 0.00 65 1013.8
20200405223334 61 198 1.0 6.0 0.00 0.00 0.00 65 1013.7
20200405223030 61 198 2.0 6.0 0.00 0.00 0.00 64 1013.7
20200405222841 62 183 2.0 8.0 0.00 0.00 0.00 64 1013.7
20200405222532 62 167 3.0 8.0 0.00 0.00 0.00 63 1013.7
20200405222326 62 187 3.0 8.0 0.00 0.00 0.00 63 1013.7
20200405222037 62 181 4.0 8.0 0.00 0.00 0.00 63 1013.6
20200405221830 63 106 3.0 9.0 0.00 0.00 0.00 62 1013.6
20200405221604 63 131 3.0 9.0 0.00 0.00 0.00 63 1013.6
20200405063530 46 173 0.0 0.0 0.00 0.00 0.00 80 1015.6
20200405063342 47 173 0.0 0.0 0.00 0.00 0.00 81 1015.6
20200405062845 47 173 0.0 0.0 0.00 0.00 0.00 80 1015.6
20200405062541 47 173 0.0 0.0 0.00 0.00 0.00 80 1015.6
20200405062329 47 173 0.0 0.0 0.00 0.00 0.00 80 1015.6
20200405062045 47 173 0.0 0.0 0.00 0.00 0.00 80 1015.7
20200405061834 47 173 0.0 0.0 0.00 0.00 0.00 80 1015.6
20200405061529 47 173 0.0 0.0 0.00 0.00 0.00 79 1015.6
20200405061338 47 173 0.0 0.0 0.00 0.00 0.00 79 1015.6